owner,sensor,date,latitude,longitude,vertical_datum,direction_of_sea_water_velocity,sea_water_speed,upward_sea_water_velocity,qcFlag 
TABS,ioos:station:wmo:42051:1,2007-02-12T21:00:00Z,29.6350,-93.6417,2.0,268.7515054,18.36435678,-99999.0,'11111222,11111222,99999999' 
TABS,ioos:station:wmo:42051:1,2007-02-12T21:30:00Z,29.6350,-93.6417,2.0,259.9303134,23.2785588,-99999.0,'11111222,11111222,99999999' 
TABS,ioos:station:wmo:42051:1,2007-02-12T22:00:00Z,29.6350,-93.6417,2.0,272.5926811,17.68810052,-99999.0,'11111222,11111222,99999999' 
TABS,ioos:station:wmo:42051:1,2007-02-12T22:30:00Z,29.6350,-93.6417,2.0,271.2381693,24.53572497,-99999.0,'11111222,11111222,99999999' 
TABS,ioos:station:wmo:42051:1,2007-02-12T23:00:00Z,29.6350,-93.6417,2.0,265.9271493,24.78257452,-99999.0,'11111222,11111222,99999999' 
TABS,ioos:station:wmo:42051:1,2007-02-12T23:30:00Z,29.6350,-93.6417,2.0,267.0815666,21.60801703,-99999.0,'11111222,11111222,99999999' 
TABS,ioos:station:wmo:42051:1,2007-02-13T00:00:00Z,29.6350,-93.6417,2.0,265.8519866,25.02554095,-99999.0,'11111222,11111222,99999999' 
TABS,ioos:station:wmo:42051:1,2007-02-13T00:30:00Z,29.6350,-93.6417,2.0,270.1578982,21.83008246,-99999.0,'11111222,11111222,99999999' 
TABS,ioos:station:wmo:42051:1,2007-02-13T01:00:00Z,29.6350,-93.6417,2.0,262.8153285,22.78891397,-99999.0,'11111222,11111222,99999999' 
TABS,ioos:station:wmo:42051:1,2007-02-13T01:30:00Z,29.6350,-93.6417,2.0,258.4802382,26.28954355,-99999.0,'11111222,11111222,99999999' 
TABS,ioos:station:wmo:42051:1,2007-02-13T02:00:00Z,29.6350,-93.6417,2.0,258.6896731,25.49509757,-99999.0,'11111222,11111222,99999999' 
TABS,ioos:station:wmo:42051:1,2007-02-13T02:30:00Z,29.6350,-93.6417,2.0,266.2251276,25.97634501,-99999.0,'11111222,11111222,99999999' 
TABS,ioos:station:wmo:42051:1,2007-02-13T03:00:00Z,29.6350,-93.6417,2.0,263.4137144,27.81353987,-99999.0,'11111222,11111222,99999999' 
TABS,ioos:station:wmo:42051:1,2007-02-13T03:30:00Z,29.6350,-93.6417,2.0,259.8441096,27.45006375,-99999.0,'11111222,11111222,99999999' 
TABS,ioos:station:wmo:42051:1,2007-02-13T04:00:00Z,29.6350,-93.6417,2.0,267.6707018,30.51520441,-99999.0,'11111222,11111222,99999999' 
TABS,ioos:station:wmo:42051:1,2007-02-13T04:30:00Z,29.6350,-93.6417,2.0,261.1843787,30.27764852,-99999.0,'11111222,11111222,99999999' 
TABS,ioos:station:wmo:42051:1,2007-02-13T05:00:00Z,29.6350,-93.6417,2.0,266.910503,24.86613158,-99999.0,'11111222,11111222,99999999' 
TABS,ioos:station:wmo:42051:1,2007-02-13T05:30:00Z,29.6350,-93.6417,2.0,259.2474177,23.37030595,-99999.0,'11111222,11111222,99999999' 
TABS,ioos:station:wmo:42051:1,2007-02-13T06:00:00Z,29.6350,-93.6417,2.0,266.1644163,21.678547,-99999.0,'11111222,11111222,99999999' 
TABS,ioos:station:wmo:42051:1,2007-02-13T06:30:00Z,29.6350,-93.6417,2.0,244.1794814,19.95188462,-99999.0,'11111222,11111222,99999999' 
TABS,ioos:station:wmo:42051:1,2007-02-13T07:00:00Z,29.6350,-93.6417,2.0,242.6601848,18.52975175,-99999.0,'11111222,11111222,99999999' 
TABS,ioos:station:wmo:42051:1,2007-02-13T07:30:00Z,29.6350,-93.6417,2.0,251.4256065,13.02862234,-99999.0,'11111222,11111222,99999999' 
TABS,ioos:station:wmo:42051:1,2007-02-13T08:00:00Z,29.6350,-93.6417,2.0,249.2257942,11.70068801,-99999.0,'11111222,11111222,99999999' 
TABS,ioos:station:wmo:42051:1,2007-02-13T08:30:00Z,29.6350,-93.6417,2.0,248.0750879,16.41736276,-99999.0,'11111222,11111222,99999999' 
TABS,ioos:station:wmo:42051:1,2007-02-13T09:00:00Z,29.6350,-93.6417,2.0,244.254019,26.26754081,-99999.0,'11111222,11111222,99999999' 
TABS,ioos:station:wmo:42051:1,2007-02-13T09:30:00Z,29.6350,-93.6417,2.0,246.2356119,38.98546524,-99999.0,'11111222,11111222,99999999' 
TABS,ioos:station:wmo:42051:1,2007-02-13T10:00:00Z,29.6350,-93.6417,2.0,252.1409722,37.72788094,-99999.0,'11111222,11111222,99999999' 
TABS,ioos:station:wmo:42051:1,2007-02-13T10:30:00Z,29.6350,-93.6417,2.0,248.8506363,36.53049822,-99999.0,'11111222,11111222,99999999' 
TABS,ioos:station:wmo:42051:1,2007-02-13T11:00:00Z,29.6350,-93.6417,2.0,262.1504144,33.1707778,-99999.0,'11111222,11111222,99999999' 
TABS,ioos:station:wmo:42051:1,2007-02-13T11:30:00Z,29.6350,-93.6417,2.0,267.0863288,32.07144836,-99999.0,'11111222,11111222,99999999' 
TABS,ioos:station:wmo:42051:1,2007-02-13T12:00:00Z,29.6350,-93.6417,2.0,267.627177,29.95567559,-99999.0,'11111222,11111222,99999999' 
TABS,ioos:station:wmo:42051:1,2007-02-13T12:30:00Z,29.6350,-93.6417,2.0,263.6594022,25.80784764,-99999.0,'11111222,11111222,99999999' 
TABS,ioos:station:wmo:42051:1,2007-02-13T13:00:00Z,29.6350,-93.6417,2.0,258.8881407,25.47759997,-99999.0,'11111222,11111222,99999999' 
TABS,ioos:station:wmo:42051:1,2007-02-13T13:30:00Z,29.6350,-93.6417,2.0,270.8514197,20.87230222,-99999.0,'11111222,11111222,99999999' 
TABS,ioos:station:wmo:42051:1,2007-02-13T14:00:00Z,29.6350,-93.6417,2.0,266.6331263,15.66703546,-99999.0,'11111222,11111222,99999999' 
TABS,ioos:station:wmo:42051:1,2007-02-13T14:30:00Z,29.6350,-93.6417,2.0,249.7350348,14.95571128,-99999.0,'11111222,11111222,99999999' 
TABS,ioos:station:wmo:42051:1,2007-02-13T15:00:00Z,29.6350,-93.6417,2.0,245.7106685,16.2153415,-99999.0,'11111222,11111222,99999999' 
TABS,ioos:station:wmo:42051:1,2007-02-13T15:30:00Z,29.6350,-93.6417,2.0,236.9129925,16.06500856,-99999.0,'11111222,11111222,99999999' 
TABS,ioos:station:wmo:42051:1,2007-02-13T16:00:00Z,29.6350,-93.6417,2.0,241.7280337,19.97247356,-99999.0,'11111222,11111222,99999999' 
TABS,ioos:station:wmo:42051:1,2007-02-13T16:30:00Z,29.6350,-93.6417,2.0,237.5347362,21.01407386,-99999.0,'11111222,11111222,99999999' 
TABS,ioos:station:wmo:42051:1,2007-02-13T17:00:00Z,29.6350,-93.6417,2.0,220.2630475,22.4353382,-99999.0,'11111222,11111222,99999999' 
TABS,ioos:station:wmo:42051:1,2007-02-13T17:30:00Z,29.6350,-93.6417,2.0,226.5035205,23.71038591,-99999.0,'11111222,11111222,99999999' 
TABS,ioos:station:wmo:42051:1,2007-02-13T18:00:00Z,29.6350,-93.6417,2.0,216.7583954,27.8220524,-99999.0,'11111222,11111222,99999999' 
TABS,ioos:station:wmo:42051:1,2007-02-13T18:30:00Z,29.6350,-93.6417,2.0,219.7348478,28.12716303,-99999.0,'11111222,11111222,99999999' 
TABS,ioos:station:wmo:42051:1,2007-02-13T19:00:00Z,29.6350,-93.6417,2.0,221.5138385,32.67929773,-99999.0,'11111222,11111222,99999999' 
TABS,ioos:station:wmo:42051:1,2007-02-13T19:30:00Z,29.6350,-93.6417,2.0,226.2442579,33.53184307,-99999.0,'11111222,11111222,99999999' 
TABS,ioos:station:wmo:42051:1,2007-02-13T20:00:00Z,29.6350,-93.6417,2.0,223.7095199,30.46281175,-99999.0,'11111222,11111222,99999999' 
TABS,ioos:station:wmo:42051:1,2007-02-13T20:30:00Z,29.6350,-93.6417,2.0,222.3546055,29.41870153,-99999.0,'11111222,11111222,99999999' 
TABS,ioos:station:wmo:42051:1,2007-02-13T21:00:00Z,29.6350,-93.6417,2.0,227.1658053,33.30024024,-99999.0,'11111222,11111222,99999999' 
TABS,ioos:station:wmo:42051:1,2007-02-13T21:30:00Z,29.6350,-93.6417,2.0,223.7221163,31.71455187,-99999.0,'11111222,11111222,99999999' 
TABS,ioos:station:wmo:42051:1,2007-02-13T22:00:00Z,29.6350,-93.6417,2.0,228.7431713,29.78324529,-99999.0,'11111222,11111222,99999999' 
TABS,ioos:station:wmo:42051:1,2007-02-13T22:30:00Z,29.6350,-93.6417,2.0,220.3401194,27.15780551,-99999.0,'11111222,11111222,99999999' 
TABS,ioos:station:wmo:42051:1,2007-02-13T23:00:00Z,29.6350,-93.6417,2.0,226.7149942,25.2762517,-99999.0,'11111222,11111222,99999999' 
TABS,ioos:station:wmo:42051:1,2007-02-13T23:30:00Z,29.6350,-93.6417,2.0,221.0881216,26.53589267,-99999.0,'11111222,11111222,99999999' 
TABS,ioos:station:wmo:42051:1,2007-02-14T00:00:00Z,29.6350,-93.6417,2.0,220.7101713,27.32135612,-99999.0,'11111222,11111222,99999999' 
TABS,ioos:station:wmo:42051:1,2007-02-14T00:30:00Z,29.6350,-93.6417,2.0,225.4267247,22.76947079,-99999.0,'11111222,11111222,99999999' 
TABS,ioos:station:wmo:42051:1,2007-02-14T01:00:00Z,29.6350,-93.6417,2.0,222.1807788,23.72385508,-99999.0,'11111222,11111222,99999999' 
TABS,ioos:station:wmo:42051:1,2007-02-14T01:30:00Z,29.6350,-93.6417,2.0,237.5039983,21.55478601,-99999.0,'11111222,11111222,99999999' 
TABS,ioos:station:wmo:42051:1,2007-02-14T02:00:00Z,29.6350,-93.6417,2.0,243.1023763,21.59630755,-99999.0,'11111222,11111222,99999999' 
TABS,ioos:station:wmo:42051:1,2007-02-14T02:30:00Z,29.6350,-93.6417,2.0,236.8122321,22.76299848,-99999.0,'11111222,11111222,99999999' 
TABS,ioos:station:wmo:42051:1,2007-02-14T03:00:00Z,29.6350,-93.6417,2.0,244.0923275,18.31013108,-99999.0,'11111222,11111222,99999999' 
TABS,ioos:station:wmo:42051:1,2007-02-14T03:30:00Z,29.6350,-93.6417,2.0,238.1207838,16.32188715,-99999.0,'11111222,11111222,99999999' 
TABS,ioos:station:wmo:42051:1,2007-02-14T04:00:00Z,29.6350,-93.6417,2.0,239.9926154,16.53648391,-99999.0,'11111222,11111222,99999999' 
TABS,ioos:station:wmo:42051:1,2007-02-14T04:30:00Z,29.6350,-93.6417,2.0,256.706904,13.8305459,-99999.0,'11111222,11111222,99999999' 
TABS,ioos:station:wmo:42051:1,2007-02-14T05:00:00Z,29.6350,-93.6417,2.0,265.0684521,12.21521183,-99999.0,'11111222,11111222,99999999' 
TABS,ioos:station:wmo:42051:1,2007-02-14T05:30:00Z,29.6350,-93.6417,2.0,272.9701624,11.19503461,-99999.0,'11111222,11111222,99999999' 
TABS,ioos:station:wmo:42051:1,2007-02-14T06:00:00Z,29.6350,-93.6417,2.0,270.6724798,10.23070379,-99999.0,'11111222,11111222,99999999' 
TABS,ioos:station:wmo:42051:1,2007-02-14T06:30:00Z,29.6350,-93.6417,2.0,275.5560695,11.77531316,-99999.0,'11111222,11111222,99999999' 
TABS,ioos:station:wmo:42051:1,2007-02-14T07:00:00Z,29.6350,-93.6417,2.0,274.2907785,11.76296306,-99999.0,'11111222,11111222,99999999' 
TABS,ioos:station:wmo:42051:1,2007-02-14T07:30:00Z,29.6350,-93.6417,2.0,266.0920117,11.00558495,-99999.0,'11111222,11111222,99999999' 
TABS,ioos:station:wmo:42051:1,2007-02-14T08:00:00Z,29.6350,-93.6417,2.0,266.0658061,12.09850404,-99999.0,'11111222,11111222,99999999' 
TABS,ioos:station:wmo:42051:1,2007-02-14T08:30:00Z,29.6350,-93.6417,2.0,270.6182508,13.91080875,-99999.0,'11111222,11111222,99999999' 
TABS,ioos:station:wmo:42051:1,2007-02-14T09:00:00Z,29.6350,-93.6417,2.0,283.6052688,14.49676516,-99999.0,'11111222,11111222,99999999' 
TABS,ioos:station:wmo:42051:1,2007-02-14T09:30:00Z,29.6350,-93.6417,2.0,283.8402074,9.197004947,-99999.0,'11133222,11111222,99999999' 
TABS,ioos:station:wmo:42051:1,2007-02-14T10:00:00Z,29.6350,-93.6417,2.0,280.2572168,5.335260069,-99999.0,'11133222,11111222,99999999' 
TABS,ioos:station:wmo:42051:1,2007-02-14T10:30:00Z,29.6350,-93.6417,2.0,323.4438762,8.042120367,-99999.0,'11133222,11111222,99999999' 
TABS,ioos:station:wmo:42051:1,2007-02-14T11:00:00Z,29.6350,-93.6417,2.0,313.1285751,6.494705536,-99999.0,'11133222,11111222,99999999' 
TABS,ioos:station:wmo:42051:1,2007-02-14T11:30:00Z,29.6350,-93.6417,2.0,253.8016472,4.05080239,-99999.0,'11133222,11111222,99999999' 
TABS,ioos:station:wmo:42051:1,2007-02-14T12:00:00Z,29.6350,-93.6417,2.0,296.2924673,11.2654383,-99999.0,'11111222,11111222,99999999' 
TABS,ioos:station:wmo:42051:1,2007-02-14T12:30:00Z,29.6350,-93.6417,2.0,274.1733956,11.68096743,-99999.0,'11111222,11111222,99999999' 
TABS,ioos:station:wmo:42051:1,2007-02-14T13:00:00Z,29.6350,-93.6417,2.0,259.8357347,14.9038854,-99999.0,'11111222,11111222,99999999' 
TABS,ioos:station:wmo:42051:1,2007-02-14T13:30:00Z,29.6350,-93.6417,2.0,287.2795982,15.99172911,-99999.0,'11111222,11111222,99999999' 
TABS,ioos:station:wmo:42051:1,2007-02-14T14:00:00Z,29.6350,-93.6417,2.0,296.1446417,14.61533441,-99999.0,'11111222,11111222,99999999' 
TABS,ioos:station:wmo:42051:1,2007-02-14T14:30:00Z,29.6350,-93.6417,2.0,294.7333456,13.28903683,-99999.0,'11111222,11111222,99999999' 
TABS,ioos:station:wmo:42051:1,2007-02-14T15:00:00Z,29.6350,-93.6417,2.0,299.0190993,21.727669,-99999.0,'11111222,11111222,99999999' 
TABS,ioos:station:wmo:42051:1,2007-02-14T15:30:00Z,29.6350,-93.6417,2.0,298.7235786,16.62577818,-99999.0,'11111222,11111222,99999999' 
TABS,ioos:station:wmo:42051:1,2007-02-14T16:00:00Z,29.6350,-93.6417,2.0,294.238422,15.19990789,-99999.0,'11111222,11111222,99999999' 
TABS,ioos:station:wmo:42051:1,2007-02-14T16:30:00Z,29.6350,-93.6417,2.0,305.2227005,17.32116047,-99999.0,'11111222,11111222,99999999' 
TABS,ioos:station:wmo:42051:1,2007-02-14T17:00:00Z,29.6350,-93.6417,2.0,294.8304195,21.8608783,-99999.0,'11111222,11111222,99999999' 
TABS,ioos:station:wmo:42051:1,2007-02-14T17:30:00Z,29.6350,-93.6417,2.0,292.9243367,22.46416257,-99999.0,'11111222,11111222,99999999' 
TABS,ioos:station:wmo:42051:1,2007-02-14T18:00:00Z,29.6350,-93.6417,2.0,295.690812,25.48967242,-99999.0,'11111222,11111222,99999999' 
TABS,ioos:station:wmo:42051:1,2007-02-14T18:30:00Z,29.6350,-93.6417,2.0,301.5477628,23.73835083,-99999.0,'11111222,11111222,99999999' 
TABS,ioos:station:wmo:42051:1,2007-02-14T19:00:00Z,29.6350,-93.6417,2.0,303.8947388,20.99830946,-99999.0,'11111222,11111222,99999999' 
TABS,ioos:station:wmo:42051:1,2007-02-14T19:30:00Z,29.6350,-93.6417,2.0,288.6860296,18.79043374,-99999.0,'11111222,11111222,99999999' 
TABS,ioos:station:wmo:42051:1,2007-02-14T20:00:00Z,29.6350,-93.6417,2.0,283.1301102,21.61505494,-99999.0,'11111222,11111222,99999999' 
TABS,ioos:station:wmo:42051:1,2007-02-14T20:30:00Z,29.6350,-93.6417,2.0,288.092243,21.12439348,-99999.0,'11111222,11111222,99999999' 
TABS,ioos:station:wmo:42051:1,2007-02-14T21:00:00Z,29.6350,-93.6417,2.0,292.3322795,23.2649092,-99999.0,'11111222,11111222,99999999' 
TABS,ioos:station:wmo:42051:1,2007-02-14T21:30:00Z,29.6350,-93.6417,2.0,280.4707006,21.68100551,-99999.0,'11111222,11111222,99999999' 
TABS,ioos:station:wmo:42051:1,2007-02-14T22:00:00Z,29.6350,-93.6417,2.0,270.2300104,22.46018032,-99999.0,'11111222,11111222,99999999' 
TABS,ioos:station:wmo:42051:1,2007-02-14T22:30:00Z,29.6350,-93.6417,2.0,271.7134832,18.39822274,-99999.0,'11111222,11111222,99999999' 
TABS,ioos:station:wmo:42051:1,2007-02-14T23:00:00Z,29.6350,-93.6417,2.0,277.4671979,19.54574122,-99999.0,'11111222,11111222,99999999' 
TABS,ioos:station:wmo:42051:1,2007-02-14T23:30:00Z,29.6350,-93.6417,2.0,282.265166,17.65290344,-99999.0,'11111222,11111222,99999999' 
TABS,ioos:station:wmo:42051:1,2007-02-15T00:00:00Z,29.6350,-93.6417,2.0,264.5072674,13.5823562,-99999.0,'11111222,11111222,99999999' 
TABS,ioos:station:wmo:42051:1,2007-02-15T00:30:00Z,29.6350,-93.6417,2.0,277.2649616,12.73220327,-99999.0,'11111222,11111222,99999999' 
TABS,ioos:station:wmo:42051:1,2007-02-15T01:00:00Z,29.6350,-93.6417,2.0,284.9772218,13.00166143,-99999.0,'11111222,11111222,99999999' 
TABS,ioos:station:wmo:42051:1,2007-02-15T01:30:00Z,29.6350,-93.6417,2.0,272.3651323,12.36052588,-99999.0,'11111222,11111222,99999999' 
TABS,ioos:station:wmo:42051:1,2007-02-15T02:00:00Z,29.6350,-93.6417,2.0,277.1126684,11.14576153,-99999.0,'11111222,11111222,99999999' 
TABS,ioos:station:wmo:42051:1,2007-02-15T02:30:00Z,29.6350,-93.6417,2.0,275.1702367,12.65146632,-99999.0,'11111222,11111222,99999999' 
TABS,ioos:station:wmo:42051:1,2007-02-15T03:00:00Z,29.6350,-93.6417,2.0,288.810211,11.59948275,-99999.0,'11111222,11111222,99999999' 
TABS,ioos:station:wmo:42051:1,2007-02-15T03:30:00Z,29.6350,-93.6417,2.0,288.5464569,11.41268154,-99999.0,'11111222,11111222,99999999' 
TABS,ioos:station:wmo:42051:1,2007-02-15T04:00:00Z,29.6350,-93.6417,2.0,274.3268643,10.33946324,-99999.0,'11111222,11111222,99999999' 
TABS,ioos:station:wmo:42051:1,2007-02-15T04:30:00Z,29.6350,-93.6417,2.0,270.3494256,9.850182739,-99999.0,'11133222,11111222,99999999' 
TABS,ioos:station:wmo:42051:1,2007-02-15T05:00:00Z,29.6350,-93.6417,2.0,269.276644,12.68100942,-99999.0,'11111222,11111222,99999999' 
TABS,ioos:station:wmo:42051:1,2007-02-15T05:30:00Z,29.6350,-93.6417,2.0,274.8455945,16.33838425,-99999.0,'11111222,11111222,99999999' 
TABS,ioos:station:wmo:42051:1,2007-02-15T06:00:00Z,29.6350,-93.6417,2.0,257.9347229,14.73548438,-99999.0,'11111222,11111222,99999999' 
TABS,ioos:station:wmo:42051:1,2007-02-15T06:30:00Z,29.6350,-93.6417,2.0,263.6556834,17.01418526,-99999.0,'11111222,11111222,99999999' 
TABS,ioos:station:wmo:42051:1,2007-02-15T07:00:00Z,29.6350,-93.6417,2.0,265.5034544,12.62886377,-99999.0,'11111222,11111222,99999999' 
TABS,ioos:station:wmo:42051:1,2007-02-15T07:30:00Z,29.6350,-93.6417,2.0,269.5751747,14.8504074,-99999.0,'11111222,11111222,99999999' 
TABS,ioos:station:wmo:42051:1,2007-02-15T08:00:00Z,29.6350,-93.6417,2.0,270.206705,11.11007201,-99999.0,'11111222,11111222,99999999' 
TABS,ioos:station:wmo:42051:1,2007-02-15T08:30:00Z,29.6350,-93.6417,2.0,252.950588,6.27579477,-99999.0,'11133222,11111222,99999999' 
TABS,ioos:station:wmo:42051:1,2007-02-15T09:00:00Z,29.6350,-93.6417,2.0,255.4835464,7.819622753,-99999.0,'11133222,11111222,99999999' 
TABS,ioos:station:wmo:42051:1,2007-02-15T09:30:00Z,29.6350,-93.6417,2.0,240.1022279,8.386018125,-99999.0,'11133222,11111222,99999999' 
TABS,ioos:station:wmo:42051:1,2007-02-15T10:00:00Z,29.6350,-93.6417,2.0,246.0852735,9.670160288,-99999.0,'11133222,11111222,99999999' 
TABS,ioos:station:wmo:42051:1,2007-02-15T10:30:00Z,29.6350,-93.6417,2.0,232.0240531,10.98604569,-99999.0,'11111222,11111222,99999999' 
TABS,ioos:station:wmo:42051:1,2007-02-15T11:00:00Z,29.6350,-93.6417,2.0,225.3420225,13.01806821,-99999.0,'11111222,11111222,99999999' 
TABS,ioos:station:wmo:42051:1,2007-02-15T11:30:00Z,29.6350,-93.6417,2.0,230.6498166,14.00511692,-99999.0,'11111222,11111222,99999999' 
TABS,ioos:station:wmo:42051:1,2007-02-15T12:00:00Z,29.6350,-93.6417,2.0,257.3218025,10.84439025,-99999.0,'11111222,11111222,99999999' 
TABS,ioos:station:wmo:42051:1,2007-02-15T12:30:00Z,29.6350,-93.6417,2.0,252.6194997,10.4784016,-99999.0,'11111222,11111222,99999999' 
TABS,ioos:station:wmo:42051:1,2007-02-15T13:00:00Z,29.6350,-93.6417,2.0,294.7040329,8.398630841,-99999.0,'11133222,11111222,99999999' 
TABS,ioos:station:wmo:42051:1,2007-02-15T13:30:00Z,29.6350,-93.6417,2.0,314.115023,6.407152254,-99999.0,'11133222,11111222,99999999' 
TABS,ioos:station:wmo:42051:1,2007-02-15T14:00:00Z,29.6350,-93.6417,2.0,328.2683999,11.76929055,-99999.0,'11111222,11111222,99999999' 
TABS,ioos:station:wmo:42051:1,2007-02-15T14:30:00Z,29.6350,-93.6417,2.0,28.17873467,4.447066449,-99999.0,'11133222,11111222,99999999' 
TABS,ioos:station:wmo:42051:1,2007-02-15T15:00:00Z,29.6350,-93.6417,2.0,345.8535505,5.03262357,-99999.0,'11133222,11111222,99999999' 
TABS,ioos:station:wmo:42051:1,2007-02-15T15:30:00Z,29.6350,-93.6417,2.0,328.7006823,5.851632251,-99999.0,'11133222,11111222,99999999' 
TABS,ioos:station:wmo:42051:1,2007-02-15T16:00:00Z,29.6350,-93.6417,2.0,288.7269875,22.36391737,-99999.0,'11111222,11111222,99999999' 
TABS,ioos:station:wmo:42051:1,2007-02-15T16:30:00Z,29.6350,-93.6417,2.0,288.1414319,25.27641786,-99999.0,'11111222,11111222,99999999' 
TABS,ioos:station:wmo:42051:1,2007-02-15T17:00:00Z,29.6350,-93.6417,2.0,298.4759566,24.41354542,-99999.0,'11111222,11111222,99999999' 
TABS,ioos:station:wmo:42051:1,2007-02-15T17:30:00Z,29.6350,-93.6417,2.0,292.5961558,21.96615579,-99999.0,'11111222,11111222,99999999' 
TABS,ioos:station:wmo:42051:1,2007-02-15T18:00:00Z,29.6350,-93.6417,2.0,298.7126018,24.70801085,-99999.0,'11111222,11111222,99999999' 
TABS,ioos:station:wmo:42051:1,2007-02-15T18:30:00Z,29.6350,-93.6417,2.0,293.7030114,24.62747449,-99999.0,'11111222,11111222,99999999' 
TABS,ioos:station:wmo:42051:1,2007-02-15T19:00:00Z,29.6350,-93.6417,2.0,287.7038001,23.28258577,-99999.0,'11111222,11111222,99999999' 
TABS,ioos:station:wmo:42051:1,2007-02-15T19:30:00Z,29.6350,-93.6417,2.0,286.9633412,17.48051487,-99999.0,'11111222,11111222,99999999' 
TABS,ioos:station:wmo:42051:1,2007-02-15T20:00:00Z,29.6350,-93.6417,2.0,293.7008228,17.53927308,-99999.0,'11111222,11111222,99999999' 
TABS,ioos:station:wmo:42051:1,2007-02-15T20:30:00Z,29.6350,-93.6417,2.0,278.5157111,12.83144965,-99999.0,'11111222,11111222,99999999' 
TABS,ioos:station:wmo:42051:1,2007-02-15T21:00:00Z,29.6350,-93.6417,2.0,277.7699023,11.90932828,-99999.0,'11111222,11111222,99999999' 
TABS,ioos:station:wmo:42051:1,2007-02-15T21:30:00Z,29.6350,-93.6417,2.0,279.6001675,9.594352506,-99999.0,'11133222,11111222,99999999' 
TABS,ioos:station:wmo:42051:1,2007-02-15T22:00:00Z,29.6350,-93.6417,2.0,291.082722,9.17407216,-99999.0,'11133222,11111222,99999999' 
TABS,ioos:station:wmo:42051:1,2007-02-15T22:30:00Z,29.6350,-93.6417,2.0,273.0793711,4.095912597,-99999.0,'11133222,11111222,99999999' 
TABS,ioos:station:wmo:42051:1,2007-02-15T23:00:00Z,29.6350,-93.6417,2.0,276.1213339,3.75138641,-99999.0,'11133222,11111222,99999999' 
TABS,ioos:station:wmo:42051:1,2007-02-15T23:30:00Z,29.6350,-93.6417,2.0,304.624495,2.041568025,-99999.0,'11133222,11111222,99999999' 
TABS,ioos:station:wmo:42051:1,2007-02-16T00:00:00Z,29.6350,-93.6417,2.0,146.19498,1.383979769,-99999.0,'11133222,11111222,99999999' 
TABS,ioos:station:wmo:42051:1,2007-02-16T00:30:00Z,29.6350,-93.6417,2.0,102.6584797,1.916585506,-99999.0,'11133222,11111222,99999999' 
TABS,ioos:station:wmo:42051:1,2007-02-16T01:00:00Z,29.6350,-93.6417,2.0,103.4309975,4.821877228,-99999.0,'11133222,11111222,99999999' 
TABS,ioos:station:wmo:42051:1,2007-02-16T01:30:00Z,29.6350,-93.6417,2.0,113.9921249,5.877839739,-99999.0,'11133222,11111222,99999999' 
TABS,ioos:station:wmo:42051:1,2007-02-16T02:00:00Z,29.6350,-93.6417,2.0,122.2635243,6.35051179,-99999.0,'11133222,11111222,99999999' 
TABS,ioos:station:wmo:42051:1,2007-02-16T02:30:00Z,29.6350,-93.6417,2.0,94.1556698,5.2437868,-99999.0,'11133222,11111222,99999999' 
TABS,ioos:station:wmo:42051:1,2007-02-16T03:00:00Z,29.6350,-93.6417,2.0,104.2434273,5.364923112,-99999.0,'11133222,11111222,99999999' 
TABS,ioos:station:wmo:42051:1,2007-02-16T03:30:00Z,29.6350,-93.6417,2.0,119.8447169,7.113402843,-99999.0,'11133222,11111222,99999999' 
TABS,ioos:station:wmo:42051:1,2007-02-16T04:00:00Z,29.6350,-93.6417,2.0,114.0543412,9.494514206,-99999.0,'11133222,11111222,99999999' 
TABS,ioos:station:wmo:42051:1,2007-02-16T04:30:00Z,29.6350,-93.6417,2.0,121.1401226,8.353735691,-99999.0,'11133222,11111222,99999999' 
TABS,ioos:station:wmo:42051:1,2007-02-16T05:00:00Z,29.6350,-93.6417,2.0,135.38017,6.392386096,-99999.0,'11133222,11111222,99999999' 
TABS,ioos:station:wmo:42051:1,2007-02-16T05:30:00Z,29.6350,-93.6417,2.0,150.4405264,7.277156038,-99999.0,'11133222,11111222,99999999' 
TABS,ioos:station:wmo:42051:1,2007-02-16T06:00:00Z,29.6350,-93.6417,2.0,153.3117166,8.327136363,-99999.0,'11133222,11111222,99999999' 
TABS,ioos:station:wmo:42051:1,2007-02-16T06:30:00Z,29.6350,-93.6417,2.0,135.2663842,6.081184095,-99999.0,'11133222,11111222,99999999' 
TABS,ioos:station:wmo:42051:1,2007-02-16T07:00:00Z,29.6350,-93.6417,2.0,126.2230753,6.024383786,-99999.0,'11133222,11111222,99999999' 
TABS,ioos:station:wmo:42051:1,2007-02-16T07:30:00Z,29.6350,-93.6417,2.0,142.2079717,9.073174748,-99999.0,'11133222,11111222,99999999' 
TABS,ioos:station:wmo:42051:1,2007-02-16T08:00:00Z,29.6350,-93.6417,2.0,159.2922771,8.851852913,-99999.0,'11133222,11111222,99999999' 
TABS,ioos:station:wmo:42051:1,2007-02-16T08:30:00Z,29.6350,-93.6417,2.0,172.2284659,8.356751761,-99999.0,'11133222,11111222,99999999' 
TABS,ioos:station:wmo:42051:1,2007-02-16T09:00:00Z,29.6350,-93.6417,2.0,170.6357329,9.587763034,-99999.0,'11133222,11111222,99999999' 
TABS,ioos:station:wmo:42051:1,2007-02-16T09:30:00Z,29.6350,-93.6417,2.0,171.5607116,8.653698631,-99999.0,'11133222,11111222,99999999' 
TABS,ioos:station:wmo:42051:1,2007-02-16T10:00:00Z,29.6350,-93.6417,2.0,151.5402155,8.792553668,-99999.0,'11133222,11111222,99999999' 
TABS,ioos:station:wmo:42051:1,2007-02-16T10:30:00Z,29.6350,-93.6417,2.0,104.4142695,7.35141483,-99999.0,'11133222,11111222,99999999' 
TABS,ioos:station:wmo:42051:1,2007-02-16T11:00:00Z,29.6350,-93.6417,2.0,125.1960228,8.9698272,-99999.0,'11133222,11111222,99999999' 
TABS,ioos:station:wmo:42051:1,2007-02-16T11:30:00Z,29.6350,-93.6417,2.0,121.5762301,9.625050649,-99999.0,'11133222,11111222,99999999' 
TABS,ioos:station:wmo:42051:1,2007-02-16T12:00:00Z,29.6350,-93.6417,2.0,97.69603373,8.213988069,-99999.0,'11133222,11111222,99999999' 
TABS,ioos:station:wmo:42051:1,2007-02-16T12:30:00Z,29.6350,-93.6417,2.0,106.2883369,8.949201082,-99999.0,'11133222,11111222,99999999' 
TABS,ioos:station:wmo:42051:1,2007-02-16T13:00:00Z,29.6350,-93.6417,2.0,79.64470246,8.122296473,-99999.0,'11133222,11111222,99999999' 